Date String (YYYY-MM-DD hh:mm:ss) UTC,Instrument flags,absolute air pressure of the measurement (hPa),sample flow rate (lpm),inlet stack bypass flow (lpm),air temperature of the measurement (°C),ambient temperature measured by the external sensor (°C),aerosol sample conditioner tube jacket temperature (°C),OPC LED temperature (°C),internal box temperature (°C),relative humidity of the measurement (%),span deviation,mass concentration of particles derived from Lorenz-Mie calculation of OPC scattering (μg/m³),mass concentration of particles derived from Lorenz-Mie calculation of OPC scattering (μg/m³),mass concentration of particles derived from Lorenz-Mie calculation of OPC scattering (μg/m³)
DateTimeUTC,F1_M11,P_M11,Q1_M11,Q2_M11,T1_M11,T2_M11,T3_M11,T4_M11,T5_M11,U1_M11,ZSPAN_M11,X0_M11,X2_M11,X1_M11
2023-06-28 06:00:00,SystemResetWarning,0827.9,5.00,000.00,029.9,025.2,000.0,038.2,031.5,23.4,0000.0,0018.67,0006.72,0005.20
2023-06-28 06:01:00,SystemResetWarning,0828.1,5.01,000.00,029.8,025.3,000.0,038.1,031.3,23.9,0000.0,0018.53,0006.65,0005.20
2023-06-28 06:02:00,SystemResetWarning,0828.1,5.01,000.00,029.7,025.6,000.0,038.2,031.1,24.0,0000.0,0018.06,0006.53,0005.18
2023-06-28 06:03:00,SystemResetWarning,0828.1,5.00,000.00,029.7,026.0,000.0,038.2,031.0,24.3,0000.0,0018.22,0006.53,0005.16
2023-06-28 06:04:00,SystemResetWarning,0828.0,5.00,000.00,029.7,026.5,000.0,038.2,031.0,24.6,0000.0,0018.32,0006.49,0005.17
2023-06-28 06:05:00,SystemResetWarning,0828.1,5.00,000.00,029.7,026.8,000.0,038.2,031.1,24.7,0000.0,0017.64,0006.51,0005.16
2023-06-28 06:06:00,SystemResetWarning,0828.1,4.99,000.00,029.7,027.2,000.0,038.2,031.1,24.6,0000.0,0016.79,0006.53,0005.17
2023-06-28 06:07:00,SystemResetWarning,0828.1,5.00,000.00,029.7,027.5,000.0,038.2,031.2,24.5,0000.0,0017.47,0006.55,0005.18
2023-06-28 06:08:00,SystemResetWarning,0828.1,5.02,000.00,029.7,027.7,000.0,038.2,031.2,24.8,0000.0,0017.33,0006.59,0005.20
2023-06-28 06:09:00,SystemResetWarning,0828.2,4.98,000.00,029.7,027.9,000.0,038.2,031.3,24.9,0000.0,0017.88,0006.68,0005.24
2023-06-28 06:10:00,SystemResetWarning,0828.2,5.00,000.00,029.8,028.1,000.0,038.2,031.3,25.1,0000.0,0018.17,0006.72,0005.27
2023-06-28 06:11:00,SystemResetWarning,0828.2,5.01,000.00,029.8,028.2,000.0,038.2,031.3,25.4,0000.3,0018.54,0006.73,0005.30
2023-06-28 06:12:00,SystemResetWarning,0828.1,5.00,000.00,029.8,028.3,000.0,038.3,031.4,25.8,0002.6,0017.87,0006.79,0005.34
2023-06-28 06:13:00,SystemResetWarning,0828.1,4.99,000.00,029.8,028.4,000.0,038.3,031.4,25.8,0000.6,0018.27,0006.88,0005.38
2023-06-28 06:14:00,SystemResetWarning,0828.0,5.00,000.00,029.9,028.5,000.0,038.3,031.4,25.6,0000.0,0019.36,0006.89,0005.43
2023-06-28 06:15:00,SystemResetWarning,0828.0,5.00,000.00,029.9,026.9,000.0,038.3,031.5,25.6,0000.0,0020.99,0006.94,0005.46
2023-06-28 06:16:00,SystemResetWarning,0828.1,5.00,000.00,029.9,025.2,000.0,038.2,031.5,25.6,0000.0,0022.01,0006.99,0005.50
2023-06-28 06:17:00,SystemResetWarning,0828.0,5.01,000.00,029.8,025.2,000.0,038.2,031.3,26.1,0000.7,0022.08,0007.08,0005.54
2023-06-28 06:18:00,SystemResetWarning,0827.9,5.01,000.00,029.7,025.6,000.0,038.2,031.0,26.4,0001.3,0022.11,0007.15,0005.56
2023-06-28 06:19:00,SystemResetWarning,0827.9,5.00,000.00,029.7,026.0,000.0,038.2,031.0,26.7,0000.0,0022.52,0007.20,0005.58
2023-06-28 06:20:00,SystemResetWarning,0827.9,5.00,000.00,029.7,026.4,000.0,038.2,031.1,27.1,0000.0,0023.37,0007.24,0005.60
2023-06-28 06:21:00,SystemResetWarning,0827.9,5.00,000.00,029.7,026.8,000.0,038.2,031.1,27.1,0000.0,0023.56,0007.29,0005.63
2023-06-28 06:22:00,SystemResetWarning,0827.9,5.00,000.00,029.7,027.2,000.0,038.2,031.1,27.2,0000.0,0023.18,0007.34,0005.66
2023-06-28 06:23:00,SystemResetWarning,0828.0,5.00,000.00,029.7,027.4,000.0,038.2,031.2,27.6,0000.0,0023.41,0007.40,0005.70
2023-06-28 06:24:00,SystemResetWarning,0828.0,5.00,000.00,029.7,027.7,000.0,038.2,031.2,27.7,0000.0,0022.75,0007.45,0005.73
2023-06-28 06:25:00,SystemResetWarning,0828.1,4.99,000.00,029.7,027.9,000.0,038.2,031.3,28.0,0000.0,0021.79,0007.52,0005.76
2023-06-28 06:26:00,SystemResetWarning,0828.0,5.00,000.00,029.7,028.0,000.0,038.2,031.3,28.2,0000.0,0020.50,0007.58,0005.78
2023-06-28 06:27:00,SystemResetWarning,0828.1,5.00,000.00,029.8,028.1,000.0,038.3,031.3,28.6,0000.0,0019.36,0007.60,0005.79
2023-06-28 06:28:00,SystemResetWarning,0828.2,5.00,000.00,029.8,028.3,000.0,038.3,031.4,28.7,0000.0,0018.93,0007.57,0005.81
2023-06-28 06:29:00,SystemResetWarning,0828.2,5.00,000.00,029.8,028.4,000.0,038.3,031.4,28.9,0000.0,0017.75,0007.50,0005.84
2023-06-28 06:30:00,SystemResetWarning,0828.3,5.00,000.00,029.9,028.5,000.0,038.3,031.4,29.3,0000.0,0016.92,0007.48,0005.87
2023-06-28 06:31:00,SystemResetWarning,0828.3,5.00,000.00,029.9,028.5,000.0,038.3,031.5,29.4,0000.0,0016.53,0007.52,0005.89
2023-06-28 06:32:00,SystemResetWarning,0828.2,5.00,000.00,029.9,028.2,000.0,038.3,031.5,30.3,0000.0,0015.93,0007.55,0005.92
2023-06-28 06:33:00,SystemResetWarning,0828.2,4.98,000.00,029.9,026.0,000.0,038.3,031.5,31.2,0000.0,0015.99,0007.62,0005.95
2023-06-28 06:34:00,SystemResetWarning,0828.1,5.01,000.00,029.9,025.1,000.0,038.2,031.4,32.2,0000.0,0015.78,0007.59,0005.97
2023-06-28 06:35:00,SystemResetWarning,0828.1,5.01,000.00,029.8,025.3,000.0,038.2,031.1,33.4,0002.4,0015.48,0007.60,0006.00
2023-06-28 06:36:00,SystemResetWarning,0828.1,4.99,000.00,029.7,025.7,000.0,038.2,031.0,34.1,0003.3,0015.78,0007.59,0006.04
2023-06-28 06:37:00,SystemResetWarning,0828.1,5.00,000.00,029.7,026.1,000.0,038.2,031.0,34.6,0003.2,0015.76,0007.59,0006.07
2023-06-28 06:38:00,SystemResetWarning,0828.1,5.00,000.00,029.7,026.5,000.0,038.2,031.1,34.9,0003.3,0016.27,0007.63,0006.12
2023-06-28 06:39:00,SystemResetWarning,0828.1,5.00,000.00,029.7,026.9,000.0,038.2,031.1,35.0,0002.9,0017.36,0007.69,0006.19
2023-06-28 06:40:00,SystemResetWarning,0828.0,5.01,000.00,029.8,027.2,000.0,038.2,031.2,34.7,0002.9,0018.33,0007.85,0006.28
2023-06-28 06:41:00,SystemResetWarning,0828.0,4.97,000.00,029.9,027.5,000.0,038.3,031.2,35.0,0003.1,0020.40,0008.02,0006.41
2023-06-28 06:42:00,SystemResetWarning,0827.9,5.03,000.00,030.1,027.7,000.0,038.3,031.4,35.3,0002.8,0022.00,0008.16,0006.53
2023-06-28 06:43:00,SystemResetWarning,0828.0,5.00,000.00,030.4,027.9,000.0,038.3,031.5,34.9,0002.4,0022.81,0008.32,0006.67
2023-06-28 06:44:00,SystemResetWarning,0828.1,4.99,000.00,030.7,028.0,000.0,038.3,031.6,34.2,0002.0,0023.11,0008.44,0006.80
2023-06-28 06:45:00,SystemResetWarning,0828.0,4.99,000.00,030.9,028.1,000.0,038.4,031.7,33.8,0001.2,0023.83,0008.63,0006.93
2023-06-28 06:46:00,SystemResetWarning,0828.0,5.01,000.00,031.0,028.2,000.0,038.5,031.7,33.8,0000.9,0025.10,0008.74,0007.03
2023-06-28 06:47:00,SystemResetWarning,0828.1,5.01,000.00,031.0,028.3,000.0,038.6,031.7,33.7,0000.6,0025.05,0008.84,0007.14
2023-06-28 06:48:00,SystemResetWarning,0828.1,5.00,000.00,031.1,028.4,000.0,038.7,031.7,33.6,0000.9,0025.60,0008.97,0007.25
2023-06-28 06:49:00,SystemResetWarning,0828.1,5.00,000.00,031.1,028.5,000.0,038.8,031.7,33.7,0001.2,0026.08,0009.05,0007.33
2023-06-28 06:50:00,SystemResetWarning,0828.1,4.99,000.00,031.2,027.4,000.0,038.9,031.8,33.8,0001.6,0025.61,0009.13,0007.39
2023-06-28 06:51:00,SystemResetWarning,0828.1,5.01,000.00,031.2,025.5,000.0,038.9,031.7,33.8,0001.7,0025.86,0009.18,0007.44
2023-06-28 06:52:00,SystemResetWarning,0828.1,5.01,000.00,031.2,025.1,000.0,038.9,031.6,33.8,0001.5,0024.10,0009.16,0007.44
2023-06-28 06:53:00,SystemResetWarning,0828.1,4.99,000.00,031.0,025.4,000.0,038.9,031.3,34.4,0002.1,0022.46,0009.19,0007.43
2023-06-28 06:54:00,SystemResetWarning,0828.1,5.00,000.00,030.9,025.8,000.0,038.9,031.3,34.7,0002.5,0022.20,0009.26,0007.43
2023-06-28 06:55:00,SystemResetWarning,0828.1,5.00,000.00,030.9,026.3,000.0,039.0,031.3,34.7,0002.8,0022.06,0009.25,0007.41
2023-06-28 06:56:00,SystemResetWarning,0828.2,4.99,000.00,030.8,026.7,000.0,039.0,031.3,34.8,0003.3,0021.27,0009.20,0007.40
2023-06-28 06:57:00,SystemResetWarning,0828.2,5.00,000.00,030.8,027.0,000.0,039.0,031.4,34.9,0003.4,0021.46,0009.31,0007.44
2023-06-28 06:58:00,SystemResetWarning,0828.2,4.98,000.00,030.8,027.3,000.0,039.0,031.4,35.0,0003.7,0020.91,0009.36,0007.48
2023-06-28 06:59:00,SystemResetWarning,0828.2,5.02,000.00,030.8,027.6,000.0,039.0,031.5,35.2,0003.7,0021.19,0009.36,0007.49
